"FRM_AIS_EDR_2060.DAT           ",2005-08-22T13:15:18.67 ,"1/0072796513.35706",    0,    0,  211899,"AIS","B1","B1","B0","B0","PISd",0,0,0,0,"B1", 0,15,   0, 0,    0,"AIS","N/A    ","OK ","OK ",    001172.557,    -064.945,    0025.079,    0014.691,    0047.557
"FRM_AIS_EDR_2060.DAT           ",2005-08-22T13:15:26.21 ,"1/0072796521.05770",    0,    1,  211899,"AIS","B1","B1","B0","B0","PISd",0,0,0,0,"B1", 0,15,   0, 0,    0,"AIS","N/A    ","OK ","OK ",    001162.184,    -064.619,    0025.155,    0014.698,    0047.397
"FRM_AIS_EDR_2060.DAT           ",2005-08-22T13:15:33.76 ,"1/0072796528.41369",    0,    2,  211899,"AIS","B1","B1","B0","B0","PISd",0,0,0,0,"B1", 0,15,   0, 0,    0,"AIS","N/A    ","OK ","OK ",    001151.843,    -064.292,    0025.230,    0014.705,    0047.238
"FRM_AIS_EDR_2060.DAT           ",2005-08-22T13:15:41.30 ,"1/0072796536.11432",    0,    3,  211899,"AIS","B1","B1","B0","B0","PISd",0,0,0,0,"B1", 0,15,   0, 0,    0,"AIS","N/A    ","OK ","OK ",    001141.534,    -063.963,    0025.302,    0014.712,    0047.080
"FRM_AIS_EDR_2060.DAT           ",2005-08-22T13:15:48.84 ,"1/0072796543.47032",    0,    4,  211899,"AIS","B1","B1","B0","B0","PISd",0,0,0,0,"B1", 0,15,   0, 0,    0,"AIS","N/A    ","OK ","OK ",    001131.257,    -063.633,    0025.372,    0014.718,    0046.922
"FRM_AIS_EDR_2060.DAT           ",2005-08-22T13:15:56.38 ,"1/0072796551.17095",    0,    5,  211899,"AIS","B1","B1","B0","B0","PISd",0,0,0,0,"B1", 0,15,   0, 0,    0,"AIS","N/A    ","OK ","OK ",    001121.013,    -063.301,    0025.441,    0014.725,    0046.765
"FRM_AIS_EDR_2060.DAT           ",2005-08-22T13:16:03.93 ,"1/0072796558.52694",    0,    6,  211899,"AIS","B1","B1","B0","B0","PISd",0,0,0,0,"B1", 0,15,   0, 0,    0,"AIS","N/A    ","OK ","OK ",    001110.802,    -062.967,    0025.508,    0014.731,    0046.608
"FRM_AIS_EDR_2060.DAT           ",2005-08-22T13:16:11.47 ,"1/0072796566.22758",    0,    7,  211899,"AIS","B1","B1","B0","B0","PISd",0,0,0,0,"B1", 0,15,   0, 0,    0,"AIS","N/A    ","OK ","OK ",    001100.625,    -062.632,    0025.573,    0014.738,    0046.453
"FRM_AIS_EDR_2060.DAT           ",2005-08-22T13:16:19.01 ,"1/0072796573.58357",    0,    8,  211899,"AIS","B1","B1","B0","B0","PISd",0,0,0,0,"B1", 0,15,   0, 0,    0,"AIS","N/A    ","OK ","OK ",    001090.482,    -062.295,    0025.636,    0014.744,    0046.298
"FRM_AIS_EDR_2060.DAT           ",2005-08-22T13:16:26.56 ,"1/0072796581.28420",    0,    9,  211899,"AIS","B1","B1","B0","B0","PISd",0,0,0,0,"B1", 0,15,   0, 0,    0,"AIS","N/A    ","OK ","OK ",    001080.374,    -061.957,    0025.697,    0014.750,    0046.144
"FRM_AIS_EDR_2060.DAT           ",2005-08-22T13:16:34.10 ,"1/0072796588.64019",    0,   10,  211899,"AIS","B1","B1","B0","B0","PISd",0,0,0,0,"B1", 0,15,   0, 0,    0,"AIS","N/A    ","OK ","OK ",    001070.302,    -061.617,    0025.757,    0014.756,    0045.990
"FRM_AIS_EDR_2060.DAT           ",2005-08-22T13:16:41.64 ,"1/0072796596.34083",    0,   11,  211899,"AIS","B1","B1","B0","B0","PISd",0,0,0,0,"B1", 0,15,   0, 0,    0,"AIS","N/A    ","OK ","OK ",    001060.265,    -061.275,    0025.816,    0014.762,    0045.838
"FRM_AIS_EDR_2060.DAT           ",2005-08-22T13:16:49.19 ,"1/0072796604.04146",    0,   12,  211899,"AIS","B1","B1","B0","B0","PISd",0,0,0,0,"B1", 0,15,   0, 0,    0,"AIS","N/A    ","OK ","OK ",    001050.265,    -060.932,    0025.872,    0014.768,    0045.686
"FRM_AIS_EDR_2060.DAT           ",2005-08-22T13:16:56.73 ,"1/0072796611.39745",    0,   13,  211899,"AIS","B1","B1","B0","B0","PISd",0,0,0,0,"B1", 0,15,   0, 0,    0,"AIS","N/A    ","OK ","OK ",    001040.302,    -060.588,    0025.928,    0014.774,    0045.536
"FRM_AIS_EDR_2060.DAT           ",2005-08-22T13:17:04.27 ,"1/0072796619.09809",    0,   14,  211899,"AIS","B1","B1","B0","B0","PISd",0,0,0,0,"B1", 0,15,   0, 0,    0,"AIS","N/A    ","OK ","OK ",    001030.376,    -060.241,    0025.982,    0014.779,    0045.386
"FRM_AIS_EDR_2060.DAT           ",2005-08-22T13:17:11.82 ,"1/0072796626.45408",    0,   15,  211899,"AIS","B1","B1","B0","B0","PISd",0,0,0,0,"B1", 0,15,   0, 0,    0,"AIS","N/A    ","OK ","OK ",    001020.488,    -059.894,    0026.034,    0014.785,    0045.238
"FRM_AIS_EDR_2060.DAT           ",2005-08-22T13:17:19.36 ,"1/0072796634.15471",    0,   16,  211899,"AIS","B1","B1","B0","B0","PISd",0,0,0,0,"B1", 0,15,   0, 0,    0,"AIS","N/A    ","OK ","OK ",    001010.639,    -059.544,    0026.085,    0014.791,    0045.090
"FRM_AIS_EDR_2060.DAT           ",2005-08-22T13:17:26.90 ,"1/0072796641.51071",    0,   17,  211899,"AIS","B1","B1","B0","B0","PISd",0,0,0,0,"B1", 0,15,   0, 0,    0,"AIS","N/A    ","OK ","OK ",    001000.828,    -059.193,    0026.135,    0014.796,    0044.944
"FRM_AIS_EDR_2060.DAT           ",2005-08-22T13:17:34.45 ,"1/0072796649.21134",    0,   18,  211899,"AIS","B1","B1","B0","B0","PISd",0,0,0,0,"B1", 0,15,   0, 0,    0,"AIS","N/A    ","OK ","OK ",    000991.058,    -058.840,    0026.184,    0014.801,    0044.798
"FRM_AIS_EDR_2060.DAT           ",2005-08-22T13:17:41.99 ,"1/0072796656.56733",    0,   19,  211899,"AIS","B1","B1","B0","B0","PISd",0,0,0,0,"B1", 0,15,   0, 0,    0,"AIS","N/A    ","OK ","OK ",    000981.328,    -058.486,    0026.231,    0014.806,    0044.654
"FRM_AIS_EDR_2060.DAT           ",2005-08-22T13:17:49.53 ,"1/0072796664.26797",    0,   20,  211899,"AIS","B1","B1","B0","B0","PISd",0,0,0,0,"B1", 0,15,   0, 0,    0,"AIS","N/A    ","OK ","OK ",    000971.638,    -058.130,    0026.277,    0014.811,    0044.511
"FRM_AIS_EDR_2060.DAT           ",2005-08-22T13:17:57.08 ,"1/0072796671.62396",    0,   21,  211899,"AIS","B1","B1","B0","B0","PISd",0,0,0,0,"B1", 0,15,   0, 0,    0,"AIS","N/A    ","OK ","OK ",    000961.990,    -057.773,    0026.322,    0014.816,    0044.370
"FRM_AIS_EDR_2060.DAT           ",2005-08-22T13:18:04.62 ,"1/0072796679.32459",    0,   22,  211899,"AIS","B1","B1","B0","B0","PISd",0,0,0,0,"B1", 0,15,   0, 0,    0,"AIS","N/A    ","OK ","OK ",    000952.384,    -057.413,    0026.365,    0014.821,    0044.229
"FRM_AIS_EDR_2060.DAT           ",2005-08-22T13:18:12.16 ,"1/0072796687.02523",    0,   23,  211899,"AIS","B1","B1","B0","B0","PISd",0,0,0,0,"B1", 0,15,   0, 0,    0,"AIS","N/A    ","OK ","OK ",    000942.820,    -057.053,    0026.408,    0014.826,    0044.090
"FRM_AIS_EDR_2060.DAT           ",2005-08-22T13:18:19.71 ,"1/0072796694.38122",    0,   24,  211899,"AIS","B1","B1","B0","B0","PISd",0,0,0,0,"B1", 0,15,   0, 0,    0,"AIS","N/A    ","OK ","OK ",    000933.299,    -056.690,    0026.450,    0014.831,    0043.952
"FRM_AIS_EDR_2060.DAT           ",2005-08-22T13:18:27.25 ,"1/0072796702.08185",    0,   25,  211899,"AIS","B1","B1","B0","B0","PISd",0,0,0,0,"B1", 0,15,   0, 0,    0,"AIS","N/A    ","OK ","OK ",    000923.822,    -056.326,    0026.490,    0014.836,    0043.816
"FRM_AIS_EDR_2060.DAT           ",2005-08-22T13:18:34.79 ,"1/0072796709.43785",    0,   26,  211899,"AIS","B1","B1","B0","B0","PISd",0,0,0,0,"B1", 0,15,   0, 0,    0,"AIS","N/A    ","OK ","OK ",    000914.390,    -055.961,    0026.529,    0014.840,    0043.682
"FRM_AIS_EDR_2060.DAT           ",2005-08-22T13:18:42.34 ,"1/0072796717.13848",    0,   27,  211899,"AIS","B1","B1","B0","B0","PISd",0,0,0,0,"B1", 0,15,   0, 0,    0,"AIS","N/A    ","OK ","OK ",    000905.002,    -055.593,    0026.568,    0014.845,    0043.548
"FRM_AIS_EDR_2060.DAT           ",2005-08-22T13:18:49.88 ,"1/0072796724.49447",    0,   28,  211899,"AIS","B1","B1","B0","B0","PISd",0,0,0,0,"B1", 0,15,   0, 0,    0,"AIS","N/A    ","OK ","OK ",    000895.659,    -055.225,    0026.605,    0014.849,    0043.417
"FRM_AIS_EDR_2060.DAT           ",2005-08-22T13:18:57.42 ,"1/0072796732.19511",    0,   29,  211899,"AIS","B1","B1","B0","B0","PISd",0,0,0,0,"B1", 0,15,   0, 0,    0,"AIS","N/A    ","OK ","OK ",    000886.363,    -054.854,    0026.641,    0014.854,    0043.287
"FRM_AIS_EDR_2060.DAT           ",2005-08-22T13:19:04.96 ,"1/0072796739.55110",    0,   30,  211899,"AIS","B1","B1","B0","B0","PISd",0,0,0,0,"B1", 0,15,   0, 0,    0,"AIS","N/A    ","OK ","OK ",    000877.113,    -054.482,    0026.677,    0014.858,    0043.159
"FRM_AIS_EDR_2060.DAT           ",2005-08-22T13:19:12.51 ,"1/0072796747.25173",    0,   31,  211899,"AIS","B1","B1","B0","B0","PISd",0,0,0,0,"B1", 0,15,   0, 0,    0,"AIS","N/A    ","OK ","OK ",    000867.911,    -054.108,    0026.711,    0014.863,    0043.032
"FRM_AIS_EDR_2060.DAT           ",2005-08-22T13:19:20.05 ,"1/0072796754.60773",    0,   32,  211899,"AIS","B1","B1","B0","B0","PISd",0,0,0,0,"B1", 0,15,   0, 0,    0,"AIS","N/A    ","OK ","OK ",    000858.756,    -053.733,    0026.745,    0014.867,    0042.907
"FRM_AIS_EDR_2060.DAT           ",2005-08-22T13:19:27.59 ,"1/0072796762.30836",    0,   33,  211899,"AIS","B1","B1","B0","B0","PISd",0,0,0,0,"B1", 0,15,   0, 0,    0,"AIS","N/A    ","OK ","OK ",    000849.650,    -053.356,    0026.778,    0014.871,    0042.784
"FRM_AIS_EDR_2060.DAT           ",2005-08-22T13:19:35.14 ,"1/0072796770.00899",    0,   34,  211899,"AIS","B1","B1","B0","B0","PISd",0,0,0,0,"B1", 0,15,   0, 0,    0,"AIS","N/A    ","OK ","OK ",    000840.592,    -052.977,    0026.810,    0014.875,    0042.663
"FRM_AIS_EDR_2060.DAT           ",2005-08-22T13:19:42.68 ,"1/0072796777.36499",    0,   35,  211899,"AIS","B1","B1","B0","B0","PISd",0,0,0,0,"B1", 0,15,   0, 0,    0,"AIS","N/A    ","OK ","OK ",    000831.585,    -052.597,    0026.841,    0014.879,    0042.544
"FRM_AIS_EDR_2060.DAT           ",2005-08-22T13:19:50.22 ,"1/0072796785.06562",    0,   36,  211899,"AIS","B1","B1","B0","B0","PISd",0,0,0,0,"B1", 0,15,   0, 0,    0,"AIS","N/A    ","OK ","OK ",    000822.628,    -052.215,    0026.871,    0014.884,    0042.427
"FRM_AIS_EDR_2060.DAT           ",2005-08-22T13:19:57.77 ,"1/0072796792.42161",    0,   37,  211899,"AIS","B1","B1","B0","B0","PISd",0,0,0,0,"B1", 0,15,   0, 0,    0,"AIS","N/A    ","OK ","OK ",    000813.722,    -051.831,    0026.900,    0014.887,    0042.312
"FRM_AIS_EDR_2060.DAT           ",2005-08-22T13:20:05.31 ,"1/0072796800.12225",    0,   38,  211899,"AIS","B1","B1","B0","B0","PISd",0,0,0,0,"B1", 0,15,   0, 0,    0,"AIS","N/A    ","OK ","OK ",    000804.867,    -051.446,    0026.929,    0014.891,    0042.199
"FRM_AIS_EDR_2060.DAT           ",2005-08-22T13:20:12.85 ,"1/0072796807.47824",    0,   39,  211899,"AIS","B1","B1","B0","B0","PISd",0,0,0,0,"B1", 0,15,   0, 0,    0,"AIS","N/A    ","OK ","OK ",    000796.065,    -051.059,    0026.957,    0014.896,    0042.088
"FRM_AIS_EDR_2060.DAT           ",2005-08-22T13:20:20.40 ,"1/0072796815.17887",    0,   40,  211899,"AIS","B1","B1","B0","B0","PISd",0,0,0,0,"B1", 0,15,   0, 0,    0,"AIS","N/A    ","OK ","OK ",    000787.315,    -050.671,    0026.984,    0014.899,    0041.979
"FRM_AIS_EDR_2060.DAT           ",2005-08-22T13:20:27.94 ,"1/0072796822.53487",    0,   41,  211899,"AIS","B1","B1","B0","B0","PISd",0,0,0,0,"B1", 0,15,   0, 0,    0,"AIS","N/A    ","OK ","OK ",    000778.619,    -050.281,    0027.011,    0014.903,    0041.873
"FRM_AIS_EDR_2060.DAT           ",2005-08-22T13:20:35.48 ,"1/0072796830.23550",    0,   42,  211899,"AIS","B1","B1","B0","B0","PISd",0,0,0,0,"B1", 0,15,   0, 0,    0,"AIS","N/A    ","OK ","OK ",    000769.977,    -049.889,    0027.037,    0014.907,    0041.769
"FRM_AIS_EDR_2060.DAT           ",2005-08-22T13:20:43.03 ,"1/0072796837.59149",    0,   43,  211899,"AIS","B1","B1","B0","B0","PISd",0,0,0,0,"B1", 0,15,   0, 0,    0,"AIS","N/A    ","OK ","OK ",    000761.390,    -049.495,    0027.062,    0014.911,    0041.667
"FRM_AIS_EDR_2060.DAT           ",2005-08-22T13:20:50.57 ,"1/0072796845.29212",    0,   44,  211899,"AIS","B1","B1","B0","B0","PISd",0,0,0,0,"B1", 0,15,   0, 0,    0,"AIS","N/A    ","OK ","OK ",    000752.859,    -049.100,    0027.086,    0014.914,    0041.568
"FRM_AIS_EDR_2060.DAT           ",2005-08-22T13:20:58.11 ,"1/0072796852.64812",    0,   45,  211899,"AIS","B1","B1","B0","B0","PISd",0,0,0,0,"B1", 0,15,   0, 0,    0,"AIS","N/A    ","OK ","OK ",    000744.383,    -048.704,    0027.110,    0014.918,    0041.471
"FRM_AIS_EDR_2060.DAT           ",2005-08-22T13:21:05.66 ,"1/0072796860.34875",    0,   46,  211899,"AIS","B1","B1","B0","B0","PISd",0,0,0,0,"B1", 0,15,   0, 0,    0,"AIS","N/A    ","OK ","OK ",    000735.964,    -048.305,    0027.133,    0014.921,    0041.377
"FRM_AIS_EDR_2060.DAT           ",2005-08-22T13:21:13.20 ,"1/0072796868.04938",    0,   47,  211899,"AIS","B1","B1","B0","B0","PISd",0,0,0,0,"B1", 0,15,   0, 0,    0,"AIS","N/A    ","OK ","OK ",    000727.603,    -047.906,    0027.156,    0014.925,    0041.285
"FRM_AIS_EDR_2060.DAT           ",2005-08-22T13:21:20.74 ,"1/0072796875.40538",    0,   48,  211899,"AIS","B1","B1","B0","B0","PISd",0,0,0,0,"B1", 0,15,   0, 0,    0,"AIS","N/A    ","OK ","OK ",    000719.300,    -047.504,    0027.178,    0014.929,    0041.196
"FRM_AIS_EDR_2060.DAT           ",2005-08-22T13:21:28.29 ,"1/0072796883.10601",    0,   49,  211899,"AIS","B1","B1","B0","B0","PISd",0,0,0,0,"B1", 0,15,   0, 0,    0,"AIS","N/A    ","OK ","OK ",    000711.055,    -047.101,    0027.199,    0014.932,    0041.110
"FRM_AIS_EDR_2060.DAT           ",2005-08-22T13:21:35.83 ,"1/0072796890.46200",    0,   50,  211899,"AIS","B1","B1","B0","B0","PISd",0,0,0,0,"B1", 0,15,   0, 0,    0,"AIS","N/A    ","OK ","OK ",    000702.870,    -046.696,    0027.220,    0014.935,    0041.027
"FRM_AIS_EDR_2060.DAT           ",2005-08-22T13:21:43.37 ,"1/0072796898.16264",    0,   51,  211899,"AIS","B1","B1","B0","B0","PISd",0,0,0,0,"B1", 0,15,   0, 0,    0,"AIS","N/A    ","OK ","OK ",    000694.745,    -046.290,    0027.240,    0014.939,    0040.946
"FRM_AIS_EDR_2060.DAT           ",2005-08-22T13:21:50.92 ,"1/0072796905.51863",    0,   52,  211899,"AIS","B1","B1","B0","B0","PISd",0,0,0,0,"B1", 0,15,   0, 0,    0,"AIS","N/A    ","OK ","OK ",    000686.681,    -045.882,    0027.260,    0014.942,    0040.869
"FRM_AIS_EDR_2060.DAT           ",2005-08-22T13:21:58.46 ,"1/0072796913.21926",    0,   53,  211899,"AIS","B1","B1","B0","B0","PISd",0,0,0,0,"B1", 0,15,   0, 0,    0,"AIS","N/A    ","OK ","OK ",    000678.678,    -045.472,    0027.279,    0014.945,    0040.794
"FRM_AIS_EDR_2060.DAT           ",2005-08-22T13:22:06.00 ,"1/0072796920.57526",    0,   54,  211899,"AIS","B1","B1","B0","B0","PISd",0,0,0,0,"B1", 0,15,   0, 0,    0,"AIS","N/A    ","OK ","OK ",    000670.738,    -045.061,    0027.297,    0014.949,    0040.722
"FRM_AIS_EDR_2060.DAT           ",2005-08-22T13:22:13.54 ,"1/0072796928.27589",    0,   55,  211899,"AIS","B1","B1","B0","B0","PISd",0,0,0,0,"B1", 0,15,   0, 0,    0,"AIS","N/A    ","OK ","OK ",    000662.860,    -044.648,    0027.316,    0014.952,    0040.654
"FRM_AIS_EDR_2060.DAT           ",2005-08-22T13:22:21.09 ,"1/0072796935.63188",    0,   56,  211899,"AIS","B1","B1","B0","B0","PISd",0,0,0,0,"B1", 0,15,   0, 0,    0,"AIS","N/A    ","OK ","OK ",    000655.045,    -044.234,    0027.333,    0014.955,    0040.588
"FRM_AIS_EDR_2060.DAT           ",2005-08-22T13:22:28.63 ,"1/0072796943.33252",    0,   57,  211899,"AIS","B1","B1","B0","B0","PISd",0,0,0,0,"B1", 0,15,   0, 0,    0,"AIS","N/A    ","OK ","OK ",    000647.295,    -043.818,    0027.350,    0014.958,    0040.526
"FRM_AIS_EDR_2060.DAT           ",2005-08-22T13:22:36.17 ,"1/0072796951.03315",    0,   58,  211899,"AIS","B1","B1","B0","B0","PISd",0,0,0,0,"B1", 0,15,   0, 0,    0,"AIS","N/A    ","OK ","OK ",    000639.609,    -043.400,    0027.367,    0014.961,    0040.467
"FRM_AIS_EDR_2060.DAT           ",2005-08-22T13:22:43.72 ,"1/0072796958.38914",    0,   59,  211899,"AIS","B1","B1","B0","B0","PISd",0,0,0,0,"B1", 0,15,   0, 0,    0,"AIS","N/A    ","OK ","OK ",    000631.989,    -042.981,    0027.383,    0014.964,    0040.412
"FRM_AIS_EDR_2060.DAT           ",2005-08-22T13:22:51.26 ,"1/0072796966.08978",    0,   60,  211899,"AIS","B1","B1","B0","B0","PISd",0,0,0,0,"B1", 0,15,   0, 0,    0,"AIS","N/A    ","OK ","OK ",    000624.435,    -042.560,    0027.398,    0014.968,    0040.359
"FRM_AIS_EDR_2060.DAT           ",2005-08-22T13:22:58.80 ,"1/0072796973.44577",    0,   61,  211899,"AIS","B1","B1","B0","B0","PISd",0,0,0,0,"B1", 0,15,   0, 0,    0,"AIS","N/A    ","OK ","OK ",    000616.948,    -042.138,    0027.414,    0014.971,    0040.310
"FRM_AIS_EDR_2060.DAT           ",2005-08-22T13:23:06.35 ,"1/0072796981.14640",    0,   62,  211899,"AIS","B1","B1","B0","B0","PISd",0,0,0,0,"B1", 0,15,   0, 0,    0,"AIS","N/A    ","OK ","OK ",    000609.528,    -041.714,    0027.428,    0014.974,    0040.265
"FRM_AIS_EDR_2060.DAT           ",2005-08-22T13:23:13.89 ,"1/0072796988.50240",    0,   63,  211899,"AIS","B1","B1","B0","B0","PISd",0,0,0,0,"B1", 0,15,   0, 0,    0,"AIS","N/A    ","OK ","OK ",    000602.177,    -041.288,    0027.443,    0014.977,    0040.223
"FRM_AIS_EDR_2060.DAT           ",2005-08-22T13:23:21.43 ,"1/0072796996.20303",    0,   64,  211899,"AIS","B1","B1","B0","B0","PISd",0,0,0,0,"B1", 0,15,   0, 0,    0,"AIS","N/A    ","OK ","OK ",    000594.895,    -040.861,    0027.457,    0014.980,    0040.185
"FRM_AIS_EDR_2060.DAT           ",2005-08-22T13:23:28.98 ,"1/0072797003.55902",    0,   65,  211899,"AIS","B1","B1","B0","B0","PISd",0,0,0,0,"B1", 0,15,   0, 0,    0,"AIS","N/A    ","OK ","OK ",    000587.682,    -040.433,    0027.470,    0014.982,    0040.150
"FRM_AIS_EDR_2060.DAT           ",2005-08-22T13:23:36.52 ,"1/0072797011.25966",    0,   66,  211899,"AIS","B1","B1","B0","B0","PISd",0,0,0,0,"B1", 0,15,   0, 0,    0,"AIS","N/A    ","OK ","OK ",    000580.539,    -040.003,    0027.483,    0014.986,    0040.120
"FRM_AIS_EDR_2060.DAT           ",2005-08-22T13:23:44.06 ,"1/0072797018.61565",    0,   67,  211899,"AIS","B1","B1","B0","B0","PISd",0,0,0,0,"B1", 0,15,   0, 0,    0,"AIS","N/A    ","OK ","OK ",    000573.467,    -039.571,    0027.496,    0014.988,    0040.093
"FRM_AIS_EDR_2060.DAT           ",2005-08-22T13:23:51.61 ,"1/0072797026.31628",    0,   68,  211899,"AIS","B1","B1","B0","B0","PISd",0,0,0,0,"B1", 0,15,   0, 0,    0,"AIS","N/A    ","OK ","OK ",    000566.467,    -039.138,    0027.508,    0014.991,    0040.069
"FRM_AIS_EDR_2060.DAT           ",2005-08-22T13:23:59.15 ,"1/0072797034.01692",    0,   69,  211899,"AIS","B1","B1","B0","B0","PISd",0,0,0,0,"B1", 0,15,   0, 0,    0,"AIS","N/A    ","OK ","OK ",    000559.540,    -038.703,    0027.520,    0014.994,    0040.050
"FRM_AIS_EDR_2060.DAT           ",2005-08-22T13:24:06.69 ,"1/0072797041.37291",    0,   70,  211899,"AIS","B1","B1","B0","B0","PISd",0,0,0,0,"B1", 0,15,   0, 0,    0,"AIS","N/A    ","OK ","OK ",    000552.685,    -038.267,    0027.532,    0014.997,    0040.034
"FRM_AIS_EDR_2060.DAT           ",2005-08-22T13:24:14.24 ,"1/0072797049.07354",    0,   71,  211899,"AIS","B1","B1","B0","B0","PISd",0,0,0,0,"B1", 0,15,   0, 0,    0,"AIS","N/A    ","OK ","OK ",    000545.904,    -037.829,    0027.543,    0015.000,    0040.023
"FRM_AIS_EDR_2060.DAT           ",2005-08-22T13:24:21.78 ,"1/0072797056.42954",    0,   72,  211899,"AIS","B1","B1","B0","B0","PISd",0,0,0,0,"B1", 0,15,   0, 0,    0,"AIS","N/A    ","OK ","OK ",    000539.197,    -037.390,    0027.554,    0015.002,    0040.015
"FRM_AIS_EDR_2060.DAT           ",2005-08-22T13:24:29.32 ,"1/0072797064.13017",    0,   73,  211899,"AIS","B1","B1","B0","B0","PISd",0,0,0,0,"B1", 0,15,   0, 0,    0,"AIS","N/A    ","OK ","OK ",    000532.566,    -036.949,    0027.564,    0015.005,    0040.012
"FRM_AIS_EDR_2060.DAT           ",2005-08-22T13:24:36.87 ,"1/0072797071.48616",    0,   74,  211899,"AIS","B1","B1","B0","B0","PISd",0,0,0,0,"B1", 0,15,   0, 0,    0,"AIS","N/A    ","OK ","OK ",    000526.010,    -036.507,    0027.574,    0015.008,    0040.012
"FRM_AIS_EDR_2060.DAT           ",2005-08-22T13:24:44.41 ,"1/0072797079.18679",    0,   75,  211899,"AIS","B1","B1","B0","B0","PISd",0,0,0,0,"B1", 0,15,   0, 0,    0,"AIS","N/A    ","OK ","OK ",    000519.530,    -036.064,    0027.584,    0015.011,    0040.017
"FRM_AIS_EDR_2060.DAT           ",2005-08-22T13:24:51.95 ,"1/0072797086.54279",    0,   76,  211899,"AIS","B1","B1","B0","B0","PISd",0,0,0,0,"B1", 0,15,   0, 0,    0,"AIS","N/A    ","OK ","OK ",    000513.128,    -035.619,    0027.593,    0015.013,    0040.026
"FRM_AIS_EDR_2060.DAT           ",2005-08-22T13:24:59.50 ,"1/0072797094.24342",    0,   77,  211899,"AIS","B1","B1","B0","B0","PISd",0,0,0,0,"B1", 0,15,   0, 0,    0,"AIS","N/A    ","OK ","OK ",    000506.803,    -035.172,    0027.603,    0015.016,    0040.039
"FRM_AIS_EDR_2060.DAT           ",2005-08-22T13:25:07.04 ,"1/0072797101.59941",    0,   78,  211899,"AIS","B1","B1","B0","B0","PISd",0,0,0,0,"B1", 0,15,   0, 0,    0,"AIS","N/A    ","OK ","OK ",    000500.557,    -034.724,    0027.611,    0015.019,    0040.056
"FRM_AIS_EDR_2060.DAT           ",2005-08-22T13:25:14.58 ,"1/0072797109.30005",    0,   79,  211899,"AIS","B1","B1","B0","B0","PISd",0,0,0,0,"B1", 0,15,   0, 0,    0,"AIS","N/A    ","OK ","OK ",    000494.390,    -034.275,    0027.620,    0015.021,    0040.078
"FRM_AIS_EDR_2060.DAT           ",2005-08-22T13:25:22.12 ,"1/0072797117.00068",    0,   80,  211899,"AIS","B1","B1","B0","B0","PISd",0,0,0,0,"B1", 0,15,   0, 0,    0,"AIS","N/A    ","OK ","OK ",    000488.302,    -033.824,    0027.628,    0015.024,    0040.104
"FRM_AIS_EDR_2060.DAT           ",2005-08-22T13:25:29.67 ,"1/0072797124.35667",    0,   81,  211899,"AIS","B1","B1","B0","B0","PISd",0,0,0,0,"B1", 0,15,   0, 0,    0,"AIS","N/A    ","OK ","OK ",    000482.295,    -033.372,    0027.636,    0015.026,    0040.134
"FRM_AIS_EDR_2060.DAT           ",2005-08-22T13:25:37.21 ,"1/0072797132.05731",    0,   82,  211899,"AIS","B1","B1","B0","B0","PISd",0,0,0,0,"B1", 0,15,   0, 0,    0,"AIS","N/A    ","OK ","OK ",    000476.369,    -032.919,    0027.644,    0015.029,    0040.169
"FRM_AIS_EDR_2060.DAT           ",2005-08-22T13:25:44.75 ,"1/0072797139.41330",    0,   83,  211899,"AIS","B1","B1","B0","B0","PISd",0,0,0,0,"B1", 0,15,   0, 0,    0,"AIS","N/A    ","OK ","OK ",    000470.524,    -032.464,    0027.651,    0015.031,    0040.208
"FRM_AIS_EDR_2060.DAT           ",2005-08-22T13:25:52.30 ,"1/0072797147.11393",    0,   84,  211899,"AIS","B1","B1","B0","B0","PISd",0,0,0,0,"B1", 0,15,   0, 0,    0,"AIS","N/A    ","OK ","OK ",    000464.762,    -032.008,    0027.658,    0015.034,    0040.252
"FRM_AIS_EDR_2060.DAT           ",2005-08-22T13:25:59.84 ,"1/0072797154.46993",    0,   85,  211899,"AIS","B1","B1","B0","B0","PISd",0,0,0,0,"B1", 0,15,   0, 0,    0,"AIS","N/A    ","OK ","OK ",    000459.083,    -031.550,    0027.665,    0015.036,    0040.300
"FRM_AIS_EDR_2060.DAT           ",2005-08-22T13:26:07.38 ,"1/0072797162.17056",    0,   86,  211899,"AIS","B1","B1","B0","B0","PISd",0,0,0,0,"B1", 0,15,   0, 0,    0,"AIS","N/A    ","OK ","OK ",    000453.488,    -031.091,    0027.672,    0015.039,    0040.352
"FRM_AIS_EDR_2060.DAT           ",2005-08-22T13:26:14.93 ,"1/0072797169.52655",    0,   87,  211899,"AIS","B1","B1","B0","B0","PISd",0,0,0,0,"B1", 0,15,   0, 0,    0,"AIS","N/A    ","OK ","OK ",    000447.977,    -030.631,    0027.678,    0015.041,    0040.410
"FRM_AIS_EDR_2060.DAT           ",2005-08-22T13:26:22.47 ,"1/0072797177.22719",    0,   88,  211899,"AIS","B1","B1","B0","B0","PISd",0,0,0,0,"B1", 0,15,   0, 0,    0,"AIS","N/A    ","OK ","OK ",    000442.550,    -030.170,    0027.684,    0015.044,    0040.471
"FRM_AIS_EDR_2060.DAT           ",2005-08-22T13:26:30.01 ,"1/0072797184.58318",    0,   89,  211899,"AIS","B1","B1","B0","B0","PISd",0,0,0,0,"B1", 0,15,   0, 0,    0,"AIS","N/A    ","OK ","OK ",    000437.210,    -029.707,    0027.690,    0015.046,    0040.537
"FRM_AIS_EDR_2060.DAT           ",2005-08-22T13:26:37.56 ,"1/0072797192.28381",    0,   90,  211899,"AIS","B1","B1","B0","B0","PISd",0,0,0,0,"B1", 0,15,   0, 0,    0,"AIS","N/A    ","OK ","OK ",    000431.955,    -029.243,    0027.696,    0015.049,    0040.608